Home   Weather   20°35'N, 78°57'E   Past weeks
Flag for India

Past Weather in 20°35'N, 78°57'E, India — Yesterday and Last 2 Weeks

Now
57 °F

Fog.


Feels Like: 57 °F
Forecast: 87 / 66 °F
Wind: No wind

Location: Nagpur Sonegaon

Current Time: Jan 21, 2020 at 6:22:04 am

Latest Report: Jan 21, 2020 at 5:30 am


Visibility: 1 mi

Pressure: 30.04 "Hg

Humidity: 88%

Dew Point: 54 °F

Location of 20°35'N, 78°57'ELocation

Past Weather in 20°35'N, 78°57'E — Graph

°F

20°35'N, 78°57'E Temperature Yesterday

Maximum temperature yesterday: 70 °F (at 2:00 pm)
Minimum temperature yesterday: 57 °F (at 6:00 am)
Average temperature yesterday: 63 °F

High & Low Weather Summary for the Past Weeks

 TemperatureHumidityPressure
High82 °F (Jan 13, 3:00 pm)100% (Jan 8, 6:30 pm)30.18 "Hg (Jan 8, 6:30 pm)
Low45 °F (Jan 11, 4:30 am)16% (Jan 13, 3:00 pm)29.86 "Hg (Jan 13, 3:00 pm)
Average65 °F69%30.01 "Hg
* Reported Jan 6 4:30 am — Jan 21 5:00 am, 20°35'N, 78°57'E. Weather by CustomWeather, © 2020

Note: Actual official high and low records may vary slightly from our data, if they occured in-between our weather recording intervals... More about our weather records

20°35'N, 78°57'E Weather History for the Previous 24 Hours

Scroll right to see more
 ConditionsComfort  
Time TempWeatherWind HumidityBarometerVisibility
5:00 am
Tue, Jan 21
57 °FFog.No wind94%30.01 "Hg1 mi
4:30 am59 °FFog.No wind88%30.01 "Hg1 mi
4:00 am59 °FFog.No wind88%30.01 "Hg1 mi
3:30 am57 °FFog.No wind94%30.01 "Hg1 mi
3:00 am57 °FFog.No wind94%30.04 "Hg1 mi
2:00 am61 °FFog.No wind88%30.04 "Hg1 mi
1:30 am61 °FFog.2 mph88%30.04 "Hg1 mi
1:00 am61 °FFog.5 mph88%30.07 "Hg1 mi
12:30 am63 °FFog.3 mph83%30.07 "Hg1 mi
12:00 am61 °FFog.2 mph88%30.07 "Hg1 mi
11:30 pm
Mon, Jan 20
61 °FFog.No wind88%30.07 "Hg1 mi
11:00 pm63 °FFog.No wind83%30.07 "Hg1 mi
10:30 pm61 °FFog.No wind83%30.07 "Hg1 mi
10:00 pm61 °FPassing clouds.No wind83%30.07 "Hg1 mi
9:30 pm63 °FPassing clouds.No wind83%30.07 "Hg1 mi
9:00 pm63 °FPassing clouds.No wind77%30.07 "Hg1 mi
8:30 pm64 °FPassing clouds.No wind73%30.07 "Hg1 mi
8:00 pm63 °FPassing clouds.No wind77%30.04 "Hg1 mi
7:30 pm64 °FPassing clouds.2 mph78%30.04 "Hg1 mi
7:00 pm64 °FPassing clouds.No wind78%30.04 "Hg1 mi
6:30 pm66 °FPassing clouds.2 mph68%30.04 "Hg1 mi
6:00 pm68 °FScattered clouds.3 mph73%30.01 "Hg1 mi
5:00 pm70 °FScattered clouds.No wind60%30.01 "Hg1 mi
4:00 pm70 °FPartly sunny.No wind57%30.01 "Hg1 mi
3:00 pm70 °FBroken clouds.2 mph60%30.01 "Hg1 mi
2:30 pm70 °FBroken clouds.2 mph57%30.04 "Hg1 mi
2:00 pm70 °FBroken clouds.2 mph57%30.04 "Hg1 mi
1:30 pm68 °FBroken clouds.6 mph53%30.04 "Hg2 mi
1:00 pm68 °FBroken clouds.No wind56%30.07 "Hg2 mi
12:30 pm68 °FBroken clouds.2 mph53%30.09 "Hg2 mi
12:00 pm66 °FBroken clouds.2 mph56%30.09 "Hg2 mi
11:30 am66 °FBroken clouds.3 mph56%30.12 "Hg2 mi
11:00 am66 °FScattered clouds.5 mph56%30.12 "Hg2 mi
10:30 am64 °FHaze.3 mph56%30.15 "Hg2 mi
10:00 am64 °FHaze.3 mph56%30.12 "Hg2 mi
9:30 am63 °FHaze.3 mph59%30.12 "Hg2 mi
9:00 am61 °FScattered clouds.7 mph63%30.12 "Hg2 mi
8:30 am59 °FBroken clouds.6 mph68%30.12 "Hg1 mi
8:00 am59 °FPartly sunny.6 mph68%30.09 "Hg1 mi
7:30 am57 °FScattered clouds.2 mph72%30.07 "Hg1 mi
7:00 am57 °FHaze.3 mph72%30.07 "Hg1 mi
6:30 am57 °FHaze.5 mph72%30.04 "Hg1 mi
6:00 am57 °FHaze.5 mph72%30.04 "Hg2 mi
Weather by CustomWeather, © 2020

See weather overview

Advertising